Airport Information

KMFR - Rogue Valley Intl Medford Airport

KMFR 082353Z 35010KT 10SM CLR 33/10 A2999 RMK AO2 SLP144 T03280100 10328 20228 56017


  • General Information

  • Coordinates: N 42°22'27"/ W 122°52'24"
  • Location: N/A
  • Surveyed Elevation: 1335 MSL

Operations

Flow Name Active Runways Conditions

Green background denotes normal operations.


Common Frequencies

Callsign Frequency Position Name

More at the Document Center


Charts


Flights